Location: Chuathbaluk
(61.5726°N, 159.2454°W)
Time: 08:04:33
(UTC+00:00)

NUDT-PHONESAT - Pass Details

Date: 20 January 2021
Orbit: 479 x 498 km, 97.4° (Epoch: 08 March)

Event Time Altitude Azimuth Distance (km) Brightness Sun altitude
Rises 16:47:51 0° 21° (NNE) 2,613 ? -17.5°
Reaches altitude 10° 16:50:10 10° 33° (NNE) 1,724 ? -17.2°
Maximum altitude 16:53:25 28° 94° (E) 977 ? -16.9°
Drops below altitude 10° 16:56:38 10° 155° (SSE) 1,711 ? -16.5°
Sets 16:58:55 0° 167° (SSE) 2,588 ? -16.2°
